Weather History for Olympia, WA

Change the Weather History Date:

Saturday, August 30, 2014

  Actual Average Record
Temperature  
Mean Temperature 63 °F 63 °F  
Max Temperature 69 °F 76 °F 90 °F (1987)
Min Temperature 57 °F 49 °F 36 °F (1977)
Degree Days  
Heating Degree Days 2 3  
Month to date heating degree days 17 66  
Since 1 June heating degree days 205 334  
Since 1 July heating degree days 50 146  
Cooling Degree Days 0 1  
Month to date cooling degree days 83 46  
Year to date cooling degree days 181 103  
Since 1 June cooling degree days 180 100  
Growing Degree Days 13 (Base 50)    
Moisture  
Dew Point 57 °F    
Average Humidity 84    
Maximum Humidity 100    
Minimum Humidity 67    
Precipitation  
Precipitation 0.59 in 0.05 in 0.82 in (1990)
Month to date precipitation 1.45 0.89  
Year to date precipitation 32.41 27.55  
Sea Level Pressure  
Sea Level Pressure 29.92 in    
Wind  
Wind Speed 6 mph (SW)    
Max Wind Speed 16 mph    
Max Gust Speed 23 mph    
Visibility 6 miles    
Events Rain    
T = Trace of Precipitation, MM = Missing Value Source: NWS Daily Summary

Daily Weather History Graph

Daily Weather History Graph

Search for Another Location

Airport:

Trip Planner

Search our weather history database for the weather conditions in past years. The results will help you decide how hot, cold, wet, or windy it might be!

Date:

Astronomy

Aug. 30, 2014 Rise Set
Actual Time 6:28 AM PDT 7:54 PM PDT
Civil Twilight 5:56 AM PDT 8:26 PM PDT
Nautical Twilight 5:18 AM PDT 9:04 PM PDT
Astronomical Twilight 4:37 AM PDT 9:45 PM PDT
Moon 11:42 AM PDT (8/30) 10:10 PM PDT (8/30)
Length of Visible Light 14h 29m
Length of Day
13h 26m
Waxing Crescent, 24% of the Moon is Illuminated
Aug 30
Waxing Crescent
Sep 2
First Quarter
Sep 8
Full
Sep 15
Last Quarter
Sep 23
New

Hourly Weather History & Observations

Time (PDT) Temp. Dew Point Humidity Pressure Visibility Wind Dir Wind Speed Gust Speed Precip Events Conditions
12:54 AM 62.1 °F 55.0 °F 78% 29.96 in 10.0 mi Calm Calm - N/A   Overcast
1:54 AM 61.0 °F 55.9 °F 83% 29.95 in 10.0 mi South 4.6 mph - N/A   Overcast
2:54 AM 61.0 °F 55.9 °F 83% 29.95 in 10.0 mi SSW 4.6 mph - N/A   Overcast
3:54 AM 60.1 °F 55.9 °F 86% 29.94 in 10.0 mi West 4.6 mph - 0.00 in Rain Light Rain
4:54 AM 59.0 °F 57.0 °F 93% 29.93 in 10.0 mi Calm Calm - 0.00 in   Overcast
5:54 AM 59.0 °F 57.0 °F 93% 29.92 in 6.0 mi SSW 3.5 mph - 0.00 in Rain Light Rain
6:13 AM 59.0 °F 57.0 °F 93% 29.92 in 2.5 mi Calm Calm - 0.01 in Rain Light Rain
6:34 AM 57.9 °F 57.0 °F 97% 29.92 in 3.0 mi Calm Calm - 0.08 in Rain Rain
6:54 AM 57.9 °F 57.0 °F 97% 29.91 in 2.5 mi Calm Calm - 0.15 in Rain Rain
7:13 AM 57.9 °F 57.0 °F 97% 29.91 in 3.0 mi Calm Calm - 0.03 in Rain Light Rain
7:19 AM 57.9 °F 57.0 °F 97% 29.91 in 2.0 mi Calm Calm - 0.05 in Rain Rain
7:38 AM 57.9 °F 57.0 °F 97% 29.91 in 1.2 mi Calm Calm - 0.10 in Rain Rain
7:42 AM 57.9 °F 57.0 °F 97% 29.91 in 1.5 mi Calm Calm - 0.12 in Rain Rain
7:48 AM 59.0 °F 57.2 °F 94% 29.91 in 3.0 mi Calm Calm - 0.13 in Rain Light Rain
7:54 AM 59.0 °F 57.0 °F 93% 29.91 in 2.5 mi Calm Calm - 0.13 in   Overcast
8:54 AM 59.0 °F 57.0 °F 93% 29.91 in 2.0 mi NE 3.5 mph - 0.05 in Rain Light Rain
9:54 AM 60.1 °F 57.9 °F 93% 29.91 in 1.2 mi SSE 4.6 mph - 0.05 in Rain Light Rain
10:54 AM 60.1 °F 57.9 °F 93% 29.90 in 3.0 mi East 5.8 mph - 0.01 in Rain Light Rain
11:28 AM 62.1 °F 60.1 °F 93% 29.89 in 10.0 mi SSE 5.8 mph - 0.00 in   Overcast
11:54 AM 64.0 °F 60.1 °F 87% 29.89 in 10.0 mi South 8.1 mph - 0.00 in   Overcast
12:54 PM 64.0 °F 61.0 °F 90% 29.89 in 5.0 mi NW 3.5 mph - 0.00 in Rain Light Rain
1:54 PM 63.0 °F 60.1 °F 90% 29.89 in 1.8 mi SSW 10.4 mph - 0.02 in Rain Rain
2:28 PM 62.1 °F 61.0 °F 96% 29.89 in 1.8 mi NW 6.9 mph - 0.14 in Rain Rain
2:54 PM 64.0 °F 61.0 °F 90% 29.90 in 5.0 mi NW 6.9 mph - 0.18 in   Overcast
2:55 PM 64.0 °F 62.1 °F 93% 29.90 in 5.0 mi NW 6.9 mph - N/A   Overcast
3:15 PM 66.0 °F 61.0 °F 84% 29.90 in 5.0 mi Variable 5.8 mph - N/A   Haze
3:54 PM 66.0 °F 61.0 °F 84% 29.90 in 10.0 mi Variable 5.8 mph - N/A   Overcast
4:54 PM 68.0 °F 59.0 °F 73% 29.91 in 10.0 mi WSW 8.1 mph - N/A   Mostly Cloudy
5:54 PM 66.9 °F 55.0 °F 66% 29.93 in 10.0 mi West 15.0 mph 20.7 mph N/A   Scattered Clouds
6:54 PM 64.9 °F 54.0 °F 68% 29.94 in 10.0 mi WSW 12.7 mph - N/A   Partly Cloudy
7:54 PM 62.1 °F 53.1 °F 72% 29.96 in 10.0 mi SW 10.4 mph - N/A   Scattered Clouds
8:54 PM 60.1 °F 53.1 °F 78% 29.97 in 10.0 mi SW 8.1 mph - N/A   Mostly Cloudy
9:54 PM 59.0 °F 53.1 °F 81% 29.98 in 10.0 mi SSW 8.1 mph - N/A   Mostly Cloudy
10:54 PM 57.0 °F 54.0 °F 89% 29.99 in 10.0 mi SSW 11.5 mph - N/A   Clear
11:54 PM 57.0 °F 54.0 °F 89% 29.99 in 10.0 mi South 9.2 mph - N/A   Overcast